sat.trackr.live / text

‹ back to catalog

JILIN-1 GAOFEN 3D31

NORAD 52448 · 2022-048F

PAYLOAD ACTIVE UNKNOWN

§ Identity

Operator
Country
PRC
Launch date
2022-05-05
Launch site
TAISC
Launch vehicle
Mass (kg)
RCS (m²)

External: N2YO · Heavens-Above · Gunter

§ Orbital elements

Epoch: 2026-05-25T02:25:29.639136Z

Period
91.46 min
Inclination
97.5663°
Eccentricity
0.0003143
Mean motion
15.74420028 rev/d
Perigee alt
344.2 km
Apogee alt
348.4 km
Semi-major
6,724.4 km
B*
7.9001e-4
RAAN
258.2158°
Arg perigee
180.6356°
Mean anomaly
179.4904°
Rev number
22,594

§ Raw data

JILIN-1 GAOFEN 3D311 52448U 22048F   26145.10103749  .00115442  00000+0  79001-3 0  99982 52448  97.5663 258.2158 0003143 180.6356 179.4904 15.74420028225941

JSON: /api/v1/satellites/52448 · /tle

For live sub-satellite position, see the globe view (requires WebGL).

§ Visibility from observer

Set your observer location to see the next 7 days of passes ≥ 10°. The values pass through the URL so the page stays shareable.

No JS? Fill the form by hand. The geolocation button needs JavaScript.